Year,Month,Day,Hour,Minute,Value (Times are PST for temperature in C)
2010,09,22,00,00,8.50
2010,09,22,00,01,8.50
2010,09,22,00,02,8.40
2010,09,22,00,03,8.40
2010,09,22,00,04,8.40
2010,09,22,00,05,8.40
2010,09,22,00,06,8.30
2010,09,22,00,07,8.30
2010,09,22,00,08,8.30
2010,09,22,00,09,8.30
2010,09,22,00,10,8.30
2010,09,22,00,11,8.30
2010,09,22,00,12,8.30
2010,09,22,00,13,8.30
2010,09,22,00,14,8.20
2010,09,22,00,15,8.20
2010,09,22,00,16,8.20
2010,09,22,00,17,8.20
2010,09,22,00,18,8.20
2010,09,22,00,19,8.20
2010,09,22,00,20,8.20
2010,09,22,00,21,8.20
2010,09,22,00,22,8.20
2010,09,22,00,23,8.10
2010,09,22,00,24,8.10
2010,09,22,00,25,8.10
2010,09,22,00,26,8.10
2010,09,22,00,27,8.10
2010,09,22,00,28,8.10
2010,09,22,00,29,8.10
2010,09,22,00,30,8.10
2010,09,22,00,31,8.10
2010,09,22,00,32,8.10
2010,09,22,00,33,8.10
2010,09,22,00,34,8.10
2010,09,22,00,35,8.10
2010,09,22,00,36,8.10
2010,09,22,00,37,8.10
2010,09,22,00,38,8.10
2010,09,22,00,39,8.10
2010,09,22,00,40,8.10
2010,09,22,00,41,8.10
2010,09,22,00,42,8.10
2010,09,22,00,43,8.10
2010,09,22,00,44,8.10
2010,09,22,00,45,8.10
2010,09,22,00,46,8.10
2010,09,22,00,47,8.10
2010,09,22,00,48,8.00
2010,09,22,00,49,8.00
2010,09,22,00,50,8.00
2010,09,22,00,51,7.90
2010,09,22,00,52,7.90
2010,09,22,00,53,7.90
2010,09,22,00,54,7.90
2010,09,22,00,55,7.90
2010,09,22,00,56,7.90
2010,09,22,00,57,7.90
2010,09,22,00,58,7.90
2010,09,22,00,59,7.90
2010,09,22,01,00,7.80
2010,09,22,01,01,7.80
2010,09,22,01,02,7.80
2010,09,22,01,03,7.80
2010,09,22,01,04,7.80
2010,09,22,01,05,7.80
2010,09,22,01,06,7.70
2010,09,22,01,07,7.70
2010,09,22,01,08,7.70
2010,09,22,01,09,7.70
2010,09,22,01,10,7.70
2010,09,22,01,11,7.60
2010,09,22,01,12,7.60
2010,09,22,01,13,7.60
2010,09,22,01,14,7.70
2010,09,22,01,15,7.70
2010,09,22,01,16,7.70
2010,09,22,01,17,7.70
2010,09,22,01,18,7.70
2010,09,22,01,19,7.70
2010,09,22,01,20,7.70
2010,09,22,01,21,7.70
2010,09,22,01,22,7.70
2010,09,22,01,23,7.70
2010,09,22,01,24,7.70
2010,09,22,01,25,7.60
2010,09,22,01,26,7.60
2010,09,22,01,27,7.60
2010,09,22,01,28,7.60
2010,09,22,01,29,7.50
2010,09,22,01,30,7.50
2010,09,22,01,31,7.50
2010,09,22,01,32,7.50
2010,09,22,01,33,7.40
2010,09,22,01,34,7.40
2010,09,22,01,35,7.40
2010,09,22,01,36,7.40
2010,09,22,01,37,7.40
2010,09,22,01,38,7.40
2010,09,22,01,39,7.40
2010,09,22,01,40,7.40
2010,09,22,01,41,7.50
2010,09,22,01,42,7.40
2010,09,22,01,43,7.40
2010,09,22,01,44,7.50
2010,09,22,01,45,7.50
2010,09,22,01,46,7.50
2010,09,22,01,47,7.50
2010,09,22,01,48,7.50
2010,09,22,01,49,7.50
2010,09,22,01,50,7.40
2010,09,22,01,51,7.40
2010,09,22,01,52,7.40
2010,09,22,01,53,7.40
2010,09,22,01,54,7.40
2010,09,22,01,55,7.30
2010,09,22,01,56,7.30
2010,09,22,01,57,7.30
2010,09,22,01,58,7.30
2010,09,22,01,59,7.20
2010,09,22,02,00,7.20
2010,09,22,02,01,7.20
2010,09,22,02,02,7.20
2010,09,22,02,03,7.20
2010,09,22,02,04,7.20
2010,09,22,02,05,7.10
2010,09,22,02,06,7.10
2010,09,22,02,07,7.10
2010,09,22,02,08,7.10
2010,09,22,02,09,7.10
2010,09,22,02,10,7.10
2010,09,22,02,11,7.10
2010,09,22,02,12,7.10
2010,09,22,02,13,7.10
2010,09,22,02,14,7.10
2010,09,22,02,15,7.00
2010,09,22,02,16,7.00
2010,09,22,02,17,7.00
2010,09,22,02,18,7.00
2010,09,22,02,19,7.00
2010,09,22,02,20,7.00
2010,09,22,02,21,7.00
2010,09,22,02,22,7.00
2010,09,22,02,23,7.00
2010,09,22,02,24,7.00
2010,09,22,02,25,6.90
2010,09,22,02,26,6.90
2010,09,22,02,27,6.90
2010,09,22,02,28,6.90
2010,09,22,02,29,6.90
2010,09,22,02,30,6.90
2010,09,22,02,31,6.80
2010,09,22,02,32,6.80
2010,09,22,02,33,6.80
2010,09,22,02,34,6.80
2010,09,22,02,35,6.80
2010,09,22,02,36,6.70
2010,09,22,02,37,6.70
2010,09,22,02,38,6.70
2010,09,22,02,39,6.60
2010,09,22,02,40,6.60
2010,09,22,02,41,6.60
2010,09,22,02,42,6.60
2010,09,22,02,43,6.50
2010,09,22,02,44,6.50
2010,09,22,02,45,6.50
2010,09,22,02,46,6.40
2010,09,22,02,47,6.40
2010,09,22,02,48,6.40
2010,09,22,02,49,6.40
2010,09,22,02,50,6.40
2010,09,22,02,51,6.40
2010,09,22,02,52,6.40
2010,09,22,02,53,6.50
2010,09,22,02,54,6.50
2010,09,22,02,55,6.60
2010,09,22,02,56,6.60
2010,09,22,02,57,6.60
2010,09,22,02,58,6.60
2010,09,22,02,59,6.60
2010,09,22,03,00,6.60
2010,09,22,03,01,6.60
2010,09,22,03,02,6.60
2010,09,22,03,03,6.60
2010,09,22,03,04,6.60
2010,09,22,03,05,6.60
2010,09,22,03,06,6.60
2010,09,22,03,07,6.60
2010,09,22,03,08,6.60
2010,09,22,03,09,6.60
2010,09,22,03,10,6.60
2010,09,22,03,11,6.50
2010,09,22,03,12,6.50
2010,09,22,03,13,6.50
2010,09,22,03,14,6.50
2010,09,22,03,15,6.40
2010,09,22,03,16,6.40
2010,09,22,03,17,6.40
2010,09,22,03,18,6.40
2010,09,22,03,19,6.40
2010,09,22,03,20,6.40
2010,09,22,03,21,6.40
2010,09,22,03,22,6.40
2010,09,22,03,23,6.40
2010,09,22,03,24,6.50
2010,09,22,03,25,6.50
2010,09,22,03,26,6.50
2010,09,22,03,27,6.50
2010,09,22,03,28,6.50
2010,09,22,03,29,6.50
2010,09,22,03,30,6.50
2010,09,22,03,31,6.50
2010,09,22,03,32,6.50
2010,09,22,03,33,6.50
2010,09,22,03,34,6.60
2010,09,22,03,35,6.60
2010,09,22,03,36,6.60
2010,09,22,03,37,6.60
2010,09,22,03,38,6.60
2010,09,22,03,39,6.60
2010,09,22,03,40,6.60
2010,09,22,03,41,6.60
2010,09,22,03,42,6.50
2010,09,22,03,43,6.50
2010,09,22,03,44,6.50
2010,09,22,03,45,6.50
2010,09,22,03,46,6.50
2010,09,22,03,47,6.50
2010,09,22,03,48,6.50
2010,09,22,03,49,6.50
2010,09,22,03,50,6.50
2010,09,22,03,51,6.40
2010,09,22,03,52,6.40
2010,09,22,03,53,6.40
2010,09,22,03,54,6.40
2010,09,22,03,55,6.40
2010,09,22,03,56,6.40
2010,09,22,03,57,6.40
2010,09,22,03,58,6.30
2010,09,22,03,59,6.30
2010,09,22,04,00,6.30
2010,09,22,04,01,6.30
2010,09,22,04,02,6.30
2010,09,22,04,03,6.30
2010,09,22,04,04,6.20
2010,09,22,04,05,6.20
2010,09,22,04,06,6.20
2010,09,22,04,07,6.20
2010,09,22,04,08,6.20
2010,09,22,04,09,6.20
2010,09,22,04,10,6.20
2010,09,22,04,11,6.20
2010,09,22,04,12,6.20
2010,09,22,04,13,6.20
2010,09,22,04,14,6.20
2010,09,22,04,15,6.20
2010,09,22,04,16,6.20
2010,09,22,04,17,6.20
2010,09,22,04,18,6.20
2010,09,22,04,19,6.10
2010,09,22,04,20,6.10
2010,09,22,04,21,6.10
2010,09,22,04,22,6.10
2010,09,22,04,23,6.10
2010,09,22,04,24,6.10
2010,09,22,04,25,6.10
2010,09,22,04,26,6.10
2010,09,22,04,27,6.10
2010,09,22,04,28,6.20
2010,09,22,04,29,6.20
2010,09,22,04,30,6.20
2010,09,22,04,31,6.20
2010,09,22,04,32,6.20
2010,09,22,04,33,6.20
2010,09,22,04,34,6.20
2010,09,22,04,35,6.10
2010,09,22,04,36,6.10
2010,09,22,04,37,6.10
2010,09,22,04,38,6.10
2010,09,22,04,39,6.10
2010,09,22,04,40,6.00
2010,09,22,04,41,6.00
2010,09,22,04,42,5.90
2010,09,22,04,43,5.90
2010,09,22,04,44,5.90
2010,09,22,04,45,5.90
2010,09,22,04,46,5.90
2010,09,22,04,47,5.90
2010,09,22,04,48,5.90
2010,09,22,04,49,5.90
2010,09,22,04,50,6.00
2010,09,22,04,51,6.00
2010,09,22,04,52,6.00
2010,09,22,04,53,6.00
2010,09,22,04,54,6.10
2010,09,22,04,55,6.10
2010,09,22,04,56,6.10
2010,09,22,04,57,6.00
2010,09,22,04,58,6.00
2010,09,22,04,59,6.00
2010,09,22,05,00,6.00
2010,09,22,05,01,6.00
2010,09,22,05,02,6.00
2010,09,22,05,03,5.90
2010,09,22,05,04,5.90
2010,09,22,05,05,5.90
2010,09,22,05,06,5.90
2010,09,22,05,07,5.90
2010,09,22,05,08,5.90
2010,09,22,05,09,5.90
2010,09,22,05,10,5.90
2010,09,22,05,11,5.90
2010,09,22,05,12,5.90
2010,09,22,05,13,6.00
2010,09,22,05,14,6.00
2010,09,22,05,15,6.00
2010,09,22,05,16,6.00
2010,09,22,05,17,6.00
2010,09,22,05,18,6.00
2010,09,22,05,19,6.00
2010,09,22,05,20,5.90
2010,09,22,05,21,5.90
2010,09,22,05,22,5.90
2010,09,22,05,23,5.90
2010,09,22,05,24,5.90
2010,09,22,05,25,5.90
2010,09,22,05,26,5.90
2010,09,22,05,27,5.90
2010,09,22,05,28,5.90
2010,09,22,05,29,5.90
2010,09,22,05,30,5.90
2010,09,22,05,31,5.90
2010,09,22,05,32,5.90
2010,09,22,05,33,5.90
2010,09,22,05,34,5.90
2010,09,22,05,35,5.90
2010,09,22,05,36,5.90
2010,09,22,05,37,5.90
2010,09,22,05,38,5.90
2010,09,22,05,39,5.90
2010,09,22,05,40,5.90
2010,09,22,05,41,5.90
2010,09,22,05,42,5.90
2010,09,22,05,43,5.90
2010,09,22,05,44,5.90
2010,09,22,05,45,5.90
2010,09,22,05,46,5.90
2010,09,22,05,47,5.90
2010,09,22,05,48,5.90
2010,09,22,05,49,5.90
2010,09,22,05,50,5.90
2010,09,22,05,51,5.80
2010,09,22,05,52,5.80
2010,09,22,05,53,5.80
2010,09,22,05,54,5.80
2010,09,22,05,55,5.80
2010,09,22,05,56,5.80
2010,09,22,05,57,5.80
2010,09,22,05,58,5.80
2010,09,22,05,59,5.80
2010,09,22,06,00,5.80
2010,09,22,06,01,5.80
2010,09,22,06,02,5.80
2010,09,22,06,03,5.70
2010,09,22,06,04,5.70
2010,09,22,06,05,5.80
2010,09,22,06,06,5.80
2010,09,22,06,07,5.80
2010,09,22,06,08,5.80
2010,09,22,06,09,5.80
2010,09,22,06,10,5.80
2010,09,22,06,11,5.80
2010,09,22,06,12,5.80
2010,09,22,06,13,5.80
2010,09,22,06,14,5.80
2010,09,22,06,15,5.80
2010,09,22,06,16,5.80
2010,09,22,06,17,5.80
2010,09,22,06,18,5.80
2010,09,22,06,19,5.80
2010,09,22,06,20,5.80
2010,09,22,06,21,5.90
2010,09,22,06,22,5.90
2010,09,22,06,23,5.90
2010,09,22,06,24,5.90
2010,09,22,06,25,5.90
2010,09,22,06,26,6.00
2010,09,22,06,27,6.00
2010,09,22,06,28,6.10
2010,09,22,06,29,6.10
2010,09,22,06,30,6.10
2010,09,22,06,31,6.20
2010,09,22,06,32,6.20
2010,09,22,06,33,6.20
2010,09,22,06,34,6.20
2010,09,22,06,35,6.20
2010,09,22,06,36,6.20
2010,09,22,06,37,6.20
2010,09,22,06,38,6.20
2010,09,22,06,39,6.30
2010,09,22,06,40,6.30
2010,09,22,06,41,6.30
2010,09,22,06,42,6.30
2010,09,22,06,43,6.30
2010,09,22,06,44,6.40
2010,09,22,06,45,6.40
2010,09,22,06,46,6.40
2010,09,22,06,47,6.40
2010,09,22,06,48,6.40
2010,09,22,06,49,6.40
2010,09,22,06,50,6.40
2010,09,22,06,51,6.40
2010,09,22,06,52,6.50
2010,09,22,06,53,6.50
2010,09,22,06,54,6.50
2010,09,22,06,55,6.60
2010,09,22,06,56,6.60
2010,09,22,06,57,6.60
2010,09,22,06,58,6.60
2010,09,22,06,59,6.60
2010,09,22,07,00,6.60
2010,09,22,07,01,6.60
2010,09,22,07,02,6.70
2010,09,22,07,03,6.70
2010,09,22,07,04,6.70
2010,09,22,07,05,6.70
2010,09,22,07,06,6.70
2010,09,22,07,07,6.70
2010,09,22,07,08,6.70
2010,09,22,07,09,6.70
2010,09,22,07,10,6.70
2010,09,22,07,11,6.70
2010,09,22,07,12,6.70
2010,09,22,07,13,6.70
2010,09,22,07,14,6.70
2010,09,22,07,15,6.70
2010,09,22,07,16,6.70
2010,09,22,07,17,6.80
2010,09,22,07,18,6.80
2010,09,22,07,19,6.80
2010,09,22,07,20,6.80
2010,09,22,07,21,6.80
2010,09,22,07,22,6.80
2010,09,22,07,23,6.80
2010,09,22,07,24,6.80
2010,09,22,07,25,6.90
2010,09,22,07,26,6.90
2010,09,22,07,27,6.90
2010,09,22,07,28,6.90
2010,09,22,07,29,6.90
2010,09,22,07,30,6.90
2010,09,22,07,31,7.00
2010,09,22,07,32,7.00
2010,09,22,07,33,7.00
2010,09,22,07,34,7.10
2010,09,22,07,35,7.10
2010,09,22,07,36,7.10
2010,09,22,07,37,7.20
2010,09,22,07,38,7.20
2010,09,22,07,39,7.20
2010,09,22,07,40,7.30
2010,09,22,07,41,7.40
2010,09,22,07,42,7.40
2010,09,22,07,43,7.40
2010,09,22,07,44,7.50
2010,09,22,07,45,7.60
2010,09,22,07,46,7.60
2010,09,22,07,47,7.60
2010,09,22,07,48,7.70
2010,09,22,07,49,7.70
2010,09,22,07,50,7.70
2010,09,22,07,51,7.80
2010,09,22,07,52,7.80
2010,09,22,07,53,7.90
2010,09,22,07,54,7.90
2010,09,22,07,55,8.00
2010,09,22,07,56,8.00
2010,09,22,07,57,8.00
2010,09,22,07,58,8.10
2010,09,22,07,59,8.10
2010,09,22,08,00,8.10
2010,09,22,08,01,8.20
2010,09,22,08,02,8.20
2010,09,22,08,03,8.20
2010,09,22,08,04,8.30
2010,09,22,08,05,8.30
2010,09,22,08,06,8.40
2010,09,22,08,07,8.40
2010,09,22,08,08,8.50
2010,09,22,08,09,8.60
2010,09,22,08,10,8.60
2010,09,22,08,11,8.70
2010,09,22,08,12,8.80
2010,09,22,08,13,8.80
2010,09,22,08,14,8.80
2010,09,22,08,15,8.80
2010,09,22,08,16,8.90
2010,09,22,08,17,8.90
2010,09,22,08,18,9.10
2010,09,22,08,19,9.20
2010,09,22,08,20,9.30
2010,09,22,08,21,9.40
2010,09,22,08,22,9.40
2010,09,22,08,23,9.50
2010,09,22,08,24,9.50
2010,09,22,08,25,9.60
2010,09,22,08,26,9.60
2010,09,22,08,27,9.70
2010,09,22,08,28,9.70
2010,09,22,08,29,9.70
2010,09,22,08,30,9.80
2010,09,22,08,31,9.90
2010,09,22,08,32,9.90
2010,09,22,08,33,9.90
2010,09,22,08,34,9.90
2010,09,22,08,35,10.00
2010,09,22,08,36,9.90
2010,09,22,08,37,9.90
2010,09,22,08,38,10.00
2010,09,22,08,39,10.00
2010,09,22,08,40,10.10
2010,09,22,08,41,10.20
2010,09,22,08,42,10.30
2010,09,22,08,43,10.30
2010,09,22,08,44,10.40
2010,09,22,08,45,10.50
2010,09,22,08,46,10.60
2010,09,22,08,47,10.70
2010,09,22,08,48,10.80
2010,09,22,08,49,10.90
2010,09,22,08,50,11.10
2010,09,22,08,51,11.10
2010,09,22,08,52,11.20
2010,09,22,08,53,11.20
2010,09,22,08,54,11.30
2010,09,22,08,55,11.40
2010,09,22,08,56,11.50
2010,09,22,08,57,11.50
2010,09,22,08,58,11.60
2010,09,22,08,59,11.60
2010,09,22,09,00,11.70
2010,09,22,09,01,11.80
2010,09,22,09,02,11.80
2010,09,22,09,03,11.80
2010,09,22,09,04,11.90
2010,09,22,09,05,12.10
2010,09,22,09,06,12.20
2010,09,22,09,07,12.20
2010,09,22,09,08,12.20
2010,09,22,09,09,12.20
2010,09,22,09,10,12.20
2010,09,22,09,11,12.20
2010,09,22,09,12,12.20
2010,09,22,09,13,12.20
2010,09,22,09,14,12.20
2010,09,22,09,15,12.20
2010,09,22,09,16,12.20
2010,09,22,09,17,12.20
2010,09,22,09,18,12.30
2010,09,22,09,19,12.30
2010,09,22,09,20,12.40
2010,09,22,09,21,12.40
2010,09,22,09,22,12.50
2010,09,22,09,23,12.50
2010,09,22,09,24,12.60
2010,09,22,09,25,12.60
2010,09,22,09,26,12.60
2010,09,22,09,27,12.60
2010,09,22,09,28,12.60
2010,09,22,09,29,12.60
2010,09,22,09,30,12.60
2010,09,22,09,31,12.60
2010,09,22,09,32,12.50
2010,09,22,09,33,12.40
2010,09,22,09,34,12.40
2010,09,22,09,35,12.40
2010,09,22,09,36,12.40
2010,09,22,09,37,12.40
2010,09,22,09,38,12.50
2010,09,22,09,39,12.50
2010,09,22,09,40,12.50
2010,09,22,09,41,12.60
2010,09,22,09,42,12.60
2010,09,22,09,43,12.60
2010,09,22,09,44,12.70
2010,09,22,09,45,12.70
2010,09,22,09,46,12.80
2010,09,22,09,47,12.90
2010,09,22,09,48,13.00
2010,09,22,09,49,13.10
2010,09,22,09,50,13.20
2010,09,22,09,51,13.30
2010,09,22,09,52,13.40
2010,09,22,09,53,13.40
2010,09,22,09,54,13.40
2010,09,22,09,55,13.40
2010,09,22,09,56,13.40
2010,09,22,09,57,13.40
2010,09,22,09,58,13.30
2010,09,22,09,59,13.20
2010,09,22,10,00,13.10
2010,09,22,10,01,13.10
2010,09,22,10,02,13.00
2010,09,22,10,03,13.00
2010,09,22,10,04,12.90
2010,09,22,10,05,12.90
2010,09,22,10,06,12.90
2010,09,22,10,07,12.90
2010,09,22,10,08,12.90
2010,09,22,10,09,12.90
2010,09,22,10,10,12.90
2010,09,22,10,11,12.90
2010,09,22,10,12,13.00
2010,09,22,10,13,13.00
2010,09,22,10,14,13.10
2010,09,22,10,15,13.20
2010,09,22,10,16,13.30
2010,09,22,10,17,13.30
2010,09,22,10,18,13.40
2010,09,22,10,19,13.40
2010,09,22,10,20,13.40
2010,09,22,10,21,13.50
2010,09,22,10,22,13.50
2010,09,22,10,23,13.60
2010,09,22,10,24,13.70
2010,09,22,10,25,13.70
2010,09,22,10,26,13.80
2010,09,22,10,27,13.80
2010,09,22,10,28,13.80
2010,09,22,10,29,13.70
2010,09,22,10,30,13.70
2010,09,22,10,31,13.70
2010,09,22,10,32,13.70
2010,09,22,10,33,13.70
2010,09,22,10,34,13.70
2010,09,22,10,35,13.60
2010,09,22,10,36,13.60
2010,09,22,10,37,13.60
2010,09,22,10,38,13.50
2010,09,22,10,39,13.50
2010,09,22,10,40,13.50
2010,09,22,10,41,13.40
2010,09,22,10,42,13.40
2010,09,22,10,43,13.40
2010,09,22,10,44,13.40
2010,09,22,10,45,13.30
2010,09,22,10,46,13.30
2010,09,22,10,47,13.30
2010,09,22,10,48,13.40
2010,09,22,10,49,13.40
2010,09,22,10,50,13.50
2010,09,22,10,51,13.60
2010,09,22,10,52,13.70
2010,09,22,10,53,13.80
2010,09,22,10,54,13.90
2010,09,22,10,55,13.90
2010,09,22,10,56,14.00
2010,09,22,10,57,14.00
2010,09,22,10,58,14.10
2010,09,22,10,59,14.10
2010,09,22,11,00,14.20
2010,09,22,11,01,14.20
2010,09,22,11,02,14.30
2010,09,22,11,03,14.30
2010,09,22,11,04,14.40
2010,09,22,11,05,14.50
2010,09,22,11,06,14.50
2010,09,22,11,07,14.60
2010,09,22,11,08,14.50
2010,09,22,11,09,14.50
2010,09,22,11,10,14.40
2010,09,22,11,11,14.30
2010,09,22,11,12,14.30
2010,09,22,11,13,14.20
2010,09,22,11,14,14.20
2010,09,22,11,15,14.20
2010,09,22,11,16,14.20
2010,09,22,11,17,14.40
2010,09,22,11,18,14.50
2010,09,22,11,19,14.60
2010,09,22,11,20,14.60
2010,09,22,11,21,14.60
2010,09,22,11,22,14.50
2010,09,22,11,23,14.50
2010,09,22,11,24,14.40
2010,09,22,11,25,14.30
2010,09,22,11,26,14.30
2010,09,22,11,27,14.20
2010,09,22,11,28,14.20
2010,09,22,11,29,14.20
2010,09,22,11,30,14.10
2010,09,22,11,31,14.10
2010,09,22,11,32,14.10
2010,09,22,11,33,14.10
2010,09,22,11,34,14.00
2010,09,22,11,35,14.10
2010,09,22,11,36,14.10
2010,09,22,11,37,14.10
2010,09,22,11,38,14.10
2010,09,22,11,39,14.20
2010,09,22,11,40,14.20
2010,09,22,11,41,14.20
2010,09,22,11,42,14.20
2010,09,22,11,43,14.20
2010,09,22,11,44,14.20
2010,09,22,11,45,14.20
2010,09,22,11,46,14.20
2010,09,22,11,47,14.20
2010,09,22,11,48,14.20
2010,09,22,11,49,14.30
2010,09,22,11,50,14.30
2010,09,22,11,51,14.30
2010,09,22,11,52,14.30
2010,09,22,11,53,14.30
2010,09,22,11,54,14.30
2010,09,22,11,55,14.30
2010,09,22,11,56,14.30
2010,09,22,11,57,14.40
2010,09,22,11,58,14.40
2010,09,22,11,59,14.40
2010,09,22,12,00,14.40
2010,09,22,12,01,14.40
2010,09,22,12,02,14.40
2010,09,22,12,03,14.40
2010,09,22,12,04,14.50
2010,09,22,12,05,14.50
2010,09,22,12,06,14.60
2010,09,22,12,07,14.60
2010,09,22,12,08,14.70
2010,09,22,12,09,14.70
2010,09,22,12,10,14.80
2010,09,22,12,11,14.80
2010,09,22,12,12,14.80
2010,09,22,12,13,14.80
2010,09,22,12,14,14.80
2010,09,22,12,15,14.70
2010,09,22,12,16,14.70
2010,09,22,12,17,14.70
2010,09,22,12,18,14.70
2010,09,22,12,19,14.70
2010,09,22,12,20,14.80
2010,09,22,12,21,14.90
2010,09,22,12,22,15.00
2010,09,22,12,23,15.00
2010,09,22,12,24,15.10
2010,09,22,12,25,15.30
2010,09,22,12,26,15.50
2010,09,22,12,27,15.60
2010,09,22,12,28,15.60
2010,09,22,12,29,15.60
2010,09,22,12,30,15.60
2010,09,22,12,31,15.50
2010,09,22,12,32,15.50
2010,09,22,12,33,15.40
2010,09,22,12,34,15.40
2010,09,22,12,35,15.40
2010,09,22,12,36,15.40
2010,09,22,12,37,15.40
2010,09,22,12,38,15.40
2010,09,22,12,39,15.40
2010,09,22,12,40,15.40
2010,09,22,12,41,15.40
2010,09,22,12,42,15.40
2010,09,22,12,43,15.50
2010,09,22,12,44,15.50
2010,09,22,12,45,15.60
2010,09,22,12,46,15.70
2010,09,22,12,47,15.80
2010,09,22,12,48,16.00
2010,09,22,12,49,16.10
2010,09,22,12,50,16.10
2010,09,22,12,51,16.20
2010,09,22,12,52,16.40
2010,09,22,12,53,16.50
2010,09,22,12,54,16.70
2010,09,22,12,55,16.80
2010,09,22,12,56,16.90
2010,09,22,12,57,16.90
2010,09,22,12,58,17.00
2010,09,22,12,59,17.00
2010,09,22,13,00,17.00
2010,09,22,13,01,17.00
2010,09,22,13,02,16.90
2010,09,22,13,03,16.80
2010,09,22,13,04,16.60
2010,09,22,13,05,16.50
2010,09,22,13,06,16.40
2010,09,22,13,07,16.30
2010,09,22,13,08,16.30
2010,09,22,13,09,16.30
2010,09,22,13,10,16.30
2010,09,22,13,11,16.30
2010,09,22,13,12,16.40
2010,09,22,13,13,16.40
2010,09,22,13,14,16.40
2010,09,22,13,15,16.40
2010,09,22,13,16,16.40
2010,09,22,13,17,16.40
2010,09,22,13,18,16.40
2010,09,22,13,19,16.40
2010,09,22,13,20,16.30
2010,09,22,13,21,16.30
2010,09,22,13,22,16.30
2010,09,22,13,23,16.30
2010,09,22,13,24,16.30
2010,09,22,13,25,16.40
2010,09,22,13,26,16.50
2010,09,22,13,27,16.60
2010,09,22,13,28,16.80
2010,09,22,13,29,16.80
2010,09,22,13,30,16.90
2010,09,22,13,31,16.90
2010,09,22,13,32,16.90
2010,09,22,13,33,16.90
2010,09,22,13,34,16.90
2010,09,22,13,35,16.90
2010,09,22,13,36,16.90
2010,09,22,13,37,16.90
2010,09,22,13,38,16.90
2010,09,22,13,39,16.90
2010,09,22,13,40,16.90
2010,09,22,13,41,16.90
2010,09,22,13,42,16.90
2010,09,22,13,43,16.80
2010,09,22,13,44,16.70
2010,09,22,13,45,16.70
2010,09,22,13,46,16.70
2010,09,22,13,47,16.70
2010,09,22,13,48,16.80
2010,09,22,13,49,16.80
2010,09,22,13,50,16.80
2010,09,22,13,51,16.90
2010,09,22,13,52,16.90
2010,09,22,13,53,16.90
2010,09,22,13,54,16.90
2010,09,22,13,55,16.80
2010,09,22,13,56,16.80
2010,09,22,13,57,16.80
2010,09,22,13,58,16.80
2010,09,22,13,59,16.80
2010,09,22,14,00,16.80
2010,09,22,14,01,16.80
2010,09,22,14,02,16.80
2010,09,22,14,03,16.70
2010,09,22,14,04,16.70
2010,09,22,14,05,16.70
2010,09,22,14,06,16.60
2010,09,22,14,07,16.60
2010,09,22,14,08,16.50
2010,09,22,14,09,16.50
2010,09,22,14,10,16.40
2010,09,22,14,11,16.40
2010,09,22,14,12,16.50
2010,09,22,14,13,16.50
2010,09,22,14,14,16.60
2010,09,22,14,15,16.60
2010,09,22,14,16,16.60
2010,09,22,14,17,16.70
2010,09,22,14,18,16.80
2010,09,22,14,19,16.90
2010,09,22,14,20,17.10
2010,09,22,14,21,17.30
2010,09,22,14,22,17.40
2010,09,22,14,23,17.50
2010,09,22,14,24,17.50
2010,09,22,14,25,17.60
2010,09,22,14,26,17.60
2010,09,22,14,27,17.60
2010,09,22,14,28,17.70
2010,09,22,14,29,17.70
2010,09,22,14,30,17.60
2010,09,22,14,31,17.60
2010,09,22,14,32,17.60
2010,09,22,14,33,17.50
2010,09,22,14,34,17.50
2010,09,22,14,35,17.50
2010,09,22,14,36,17.60
2010,09,22,14,37,17.70
2010,09,22,14,38,17.70
2010,09,22,14,39,17.70
2010,09,22,14,40,17.70
2010,09,22,14,41,17.70
2010,09,22,14,42,17.70
2010,09,22,14,43,17.70
2010,09,22,14,44,17.80
2010,09,22,14,45,17.80
2010,09,22,14,46,17.90
2010,09,22,14,47,17.90
2010,09,22,14,48,17.90
2010,09,22,14,49,17.90
2010,09,22,14,50,17.90
2010,09,22,14,51,18.00
2010,09,22,14,52,17.90
2010,09,22,14,53,17.90
2010,09,22,14,54,17.90
2010,09,22,14,55,17.80
2010,09,22,14,56,17.70
2010,09,22,14,57,17.60
2010,09,22,14,58,17.50
2010,09,22,14,59,17.40
2010,09,22,15,00,17.30
2010,09,22,15,01,17.30
2010,09,22,15,02,17.20
2010,09,22,15,03,17.10
2010,09,22,15,04,17.00
2010,09,22,15,05,16.90
2010,09,22,15,06,16.90
2010,09,22,15,07,17.00
2010,09,22,15,08,17.00
2010,09,22,15,09,17.00
2010,09,22,15,10,17.10
2010,09,22,15,11,17.10
2010,09,22,15,12,17.10
2010,09,22,15,13,17.20
2010,09,22,15,14,17.10
2010,09,22,15,15,17.10
2010,09,22,15,16,17.10
2010,09,22,15,17,17.10
2010,09,22,15,18,17.10
2010,09,22,15,19,17.10
2010,09,22,15,20,17.20
2010,09,22,15,21,17.30
2010,09,22,15,22,17.30
2010,09,22,15,23,17.40
2010,09,22,15,24,17.50
2010,09,22,15,25,17.60
2010,09,22,15,26,17.50
2010,09,22,15,27,17.50
2010,09,22,15,28,17.40
2010,09,22,15,29,17.30
2010,09,22,15,30,17.20
2010,09,22,15,31,17.20
2010,09,22,15,32,17.20
2010,09,22,15,33,17.20
2010,09,22,15,34,17.30
2010,09,22,15,35,17.30
2010,09,22,15,36,17.30
2010,09,22,15,37,17.30
2010,09,22,15,38,17.30
2010,09,22,15,39,17.30
2010,09,22,15,40,17.30
2010,09,22,15,41,17.30
2010,09,22,15,42,17.30
2010,09,22,15,43,17.20
2010,09,22,15,44,17.10
2010,09,22,15,45,17.10
2010,09,22,15,46,17.10
2010,09,22,15,47,17.10
2010,09,22,15,48,17.20
2010,09,22,15,49,17.20
2010,09,22,15,50,17.20
2010,09,22,15,51,17.20
2010,09,22,15,52,17.20
2010,09,22,15,53,17.20
2010,09,22,15,54,17.30
2010,09,22,15,55,17.30
2010,09,22,15,56,17.30
2010,09,22,15,57,17.30
2010,09,22,15,58,17.30
2010,09,22,15,59,17.30
2010,09,22,16,00,17.20
2010,09,22,16,01,17.20
2010,09,22,16,02,17.20
2010,09,22,16,03,17.20
2010,09,22,16,04,17.10
2010,09,22,16,05,17.10
2010,09,22,16,06,17.10
2010,09,22,16,07,17.10
2010,09,22,16,08,17.10
2010,09,22,16,09,17.10
2010,09,22,16,10,17.10
2010,09,22,16,11,17.10
2010,09,22,16,12,17.10
2010,09,22,16,13,17.10
2010,09,22,16,14,17.10
2010,09,22,16,15,17.00
2010,09,22,16,16,17.00
2010,09,22,16,17,16.80
2010,09,22,16,18,16.70
2010,09,22,16,19,16.60
2010,09,22,16,20,16.50
2010,09,22,16,21,16.50
2010,09,22,16,22,16.40
2010,09,22,16,23,16.30
2010,09,22,16,24,16.30
2010,09,22,16,25,16.20
2010,09,22,16,26,16.10
2010,09,22,16,27,16.00
2010,09,22,16,28,15.90
2010,09,22,16,29,15.90
2010,09,22,16,30,15.90
2010,09,22,16,31,15.90
2010,09,22,16,32,15.80
2010,09,22,16,33,15.80
2010,09,22,16,34,15.80
2010,09,22,16,35,15.70
2010,09,22,16,36,15.60
2010,09,22,16,37,15.50
2010,09,22,16,38,15.50
2010,09,22,16,39,15.50
2010,09,22,16,40,15.50
2010,09,22,16,41,15.40
2010,09,22,16,42,15.30
2010,09,22,16,43,15.30
2010,09,22,16,44,15.30
2010,09,22,16,45,15.30
2010,09,22,16,46,15.20
2010,09,22,16,47,15.20
2010,09,22,16,48,15.10
2010,09,22,16,49,15.00
2010,09,22,16,50,15.00
2010,09,22,16,51,15.00
2010,09,22,16,52,15.00
2010,09,22,16,53,14.80
2010,09,22,16,54,14.70
2010,09,22,16,55,14.70
2010,09,22,16,56,14.60
2010,09,22,16,57,14.60
2010,09,22,16,58,14.60
2010,09,22,16,59,14.60
2010,09,22,17,00,14.50
2010,09,22,17,01,14.50
2010,09,22,17,02,14.40
2010,09,22,17,03,14.40
2010,09,22,17,04,14.30
2010,09,22,17,05,14.30
2010,09,22,17,06,14.20
2010,09,22,17,07,14.20
2010,09,22,17,08,14.20
2010,09,22,17,09,14.20
2010,09,22,17,10,14.20
2010,09,22,17,11,14.20
2010,09,22,17,12,14.20
2010,09,22,17,13,14.20
2010,09,22,17,14,14.20
2010,09,22,17,15,14.20
2010,09,22,17,16,14.10
2010,09,22,17,17,14.10
2010,09,22,17,18,14.10
2010,09,22,17,19,14.10
2010,09,22,17,20,14.00
2010,09,22,17,21,14.00
2010,09,22,17,22,14.00
2010,09,22,17,23,14.00
2010,09,22,17,24,14.00
2010,09,22,17,25,13.90
2010,09,22,17,26,14.00
2010,09,22,17,27,13.90
2010,09,22,17,28,14.00
2010,09,22,17,29,13.90
2010,09,22,17,30,13.90
2010,09,22,17,31,13.90
2010,09,22,17,32,14.00
2010,09,22,17,33,14.00
2010,09,22,17,34,14.00
2010,09,22,17,35,14.00
2010,09,22,17,36,14.00
2010,09,22,17,37,14.00
2010,09,22,17,38,14.00
2010,09,22,17,39,14.00
2010,09,22,17,40,14.00
2010,09,22,17,41,14.10